Evanston, WY

7:32 PM MST on December 10, 2016 (GMT -0700)
Evanston-Uinta County Burns

Weather History for KEVW - November, 2013

Change the Weather History Date:

Tuesday, November 26, 2013

  Actual Average Record
Temperature  
Mean Temperature 37 °F 25 °F  
Max Temperature 49 °F 33 °F 55 °F (1998)
Min Temperature 24 °F 17 °F 3 °F (2010)
Degree Days  
Heating Degree Days 28 40  
Month to date heating degree days 802 894  
Since 1 July heating degree days 1784 1947  
Cooling Degree Days 0 0  
Month to date cooling degree days 0 0  
Year to date cooling degree days 348 162  
Moisture  
Dew Point 18 °F    
Average Humidity 50    
Maximum Humidity 68    
Minimum Humidity 31    
Precipitation  
Precipitation 0.00 in 0.02 in 0.02 in (2001)
Month to date precipitation 0.18 0.96  
Year to date precipitation 5.20 11.47  
Sea Level Pressure  
Sea Level Pressure 30.38 in    
Wind  
Wind Speed 5 mph (SSW)    
Max Wind Speed 10 mph    
Max Gust Speed 12 mph    
Visibility 10 miles    
Events      
T = Trace of Precipitation, MM = Missing Value Source: NWS Daily Summary

Daily Weather History Graph

Daily Weather History Graph

Search for Another Location

Airport or City:

Trip Planner

Search our weather history database for the weather conditions in past years. The results will help you decide how hot, cold, wet, or windy it might be!

Date:

Astronomy

Nov. 26, 2013 Rise Set
Actual Time 7:25 AM MST 4:57 PM MST
Civil Twilight 6:54 AM MST 5:27 PM MST
Nautical Twilight 6:20 AM MST 6:01 PM MST
Astronomical Twilight 5:47 AM MST 6:35 PM MST
Moon 12:28 AM MST (11/26) 1:09 PM MST (11/26)
Length of Visible Light 10h 32m
Length of Day
9h 32m
Last Quarter, 40% of the Moon is Illuminated
Nov 26
Last Quarter
Dec 2
New
Dec 9
First Quarter
Dec 17
Full
Dec 25
Last Quarter

Hourly Weather History & Observations

Time (MST) Temp. Windchill Dew Point Humidity Pressure Visibility Wind Dir Wind Speed Gust Speed Precip Events Conditions
12:53 AM 27.0 °F 19.5 °F 17.1 °F 66% 30.41 in 10.0 mi SSW 6.9 mph - N/A   Clear
1:53 AM 27.0 °F 20.5 °F 17.1 °F 66% 30.41 in 10.0 mi SSW 5.8 mph - N/A   Clear
2:53 AM 28.0 °F 21.7 °F 17.1 °F 63% 30.40 in 10.0 mi South 5.8 mph - N/A   Clear
3:53 AM 26.1 °F 20.5 °F 16.0 °F 66% 30.42 in 10.0 mi SSE 4.6 mph - N/A   Clear
4:53 AM 27.0 °F 20.5 °F 16.0 °F 63% 30.44 in 10.0 mi SSE 5.8 mph - N/A   Clear
5:53 AM 25.0 °F 18.1 °F 15.1 °F 66% 30.47 in 10.0 mi SSE 5.8 mph - N/A   Clear
6:53 AM 24.1 °F 17.0 °F 15.1 °F 69% 30.48 in 10.0 mi SSE 5.8 mph - N/A   Clear
7:53 AM 28.0 °F - 16.0 °F 61% 30.46 in 10.0 mi Calm Calm - N/A   Clear
8:53 AM 28.9 °F 23.9 °F 17.1 °F 61% 30.47 in 10.0 mi SE 4.6 mph - N/A   Clear
9:53 AM 34.0 °F 31.0 °F 19.0 °F 54% 30.45 in 10.0 mi SSW 3.5 mph - N/A   Clear
10:53 AM 39.0 °F - 19.9 °F 46% 30.43 in 10.0 mi Calm Calm - N/A   Clear
11:53 AM 42.1 °F 39.2 °F 19.9 °F 41% 30.39 in 10.0 mi SW 4.6 mph - N/A   Clear
12:53 PM 45.0 °F 43.5 °F 18.0 °F 34% 30.35 in 10.0 mi SW 3.5 mph - N/A   Clear
1:53 PM 46.9 °F - 16.0 °F 29% 30.32 in 10.0 mi Variable 3.5 mph - N/A   Clear
2:53 PM 48.0 °F - 19.0 °F 32% 30.29 in 10.0 mi SSW 5.8 mph - N/A   Clear
3:53 PM 46.9 °F - 18.0 °F 32% 30.30 in 10.0 mi SW 4.6 mph - N/A   Clear
4:53 PM 41.0 °F 35.2 °F 21.0 °F 45% 30.32 in 10.0 mi West 9.2 mph - N/A   Clear
5:53 PM 37.9 °F 32.1 °F 18.0 °F 45% 30.34 in 10.0 mi West 8.1 mph - N/A   Clear
6:53 PM 37.0 °F 33.3 °F 18.0 °F 46% 30.35 in 10.0 mi WSW 4.6 mph - N/A   Clear
7:53 PM 37.0 °F 33.3 °F 18.0 °F 46% 30.34 in 10.0 mi SSW 4.6 mph - N/A   Clear
8:53 PM 37.0 °F 33.3 °F 18.0 °F 46% 30.33 in 10.0 mi SSW 4.6 mph - N/A   Clear
9:53 PM 36.0 °F 32.1 °F 18.0 °F 48% 30.31 in 10.0 mi South 4.6 mph - N/A   Clear
10:53 PM 34.0 °F 28.8 °F 18.0 °F 52% 30.28 in 10.0 mi SSW 5.8 mph - N/A   Clear
11:53 PM 33.1 °F 28.7 °F 18.0 °F 54% 30.26 in 10.0 mi South 4.6 mph - N/A   Clear